Weather History for Copper Harbor, MI

Change the Weather History Date:

Saturday, June 7, 2014

  Actual Average Record
Temperature  
Mean Temperature 52 °F -  
Max Temperature 62 °F 59 °F 79 °F (2004)
Min Temperature 42 °F 42 °F 39 °F (1997)
Degree Days  
Heating Degree Days 13    
Growing Degree Days 2 (Base 50)    
Moisture  
Dew Point 45 °F    
Average Humidity 92    
Maximum Humidity 97    
Minimum Humidity 78    
Precipitation  
Precipitation 0.19 in - - ()
Sea Level Pressure  
Sea Level Pressure 30.00 in    
Wind  
Wind Speed 5 mph (North)    
Max Wind Speed 15 mph    
Max Gust Speed 20 mph    
Averages and records for this station are not official NWS values.
T = Trace of Precipitation, MM = Missing Value Source: NWS Daily Summary

Daily Weather History Graph

Daily Weather History Graph

Search for Another Location

Airport:

Trip Planner

Search our weather history database for the weather conditions in past years. The results will help you decide how hot, cold, wet, or windy it might be!

Date:

Astronomy

Jun. 07, 2014 Rise Set
Actual Time 5:55 AM EDT 9:45 PM EDT
Civil Twilight 5:15 AM EDT 10:25 PM EDT
Nautical Twilight 4:21 AM EDT 11:20 PM EDT
Astronomical Twilight 3:01 AM EDT 12:41 AM EDT
Moon 3:41 PM EDT (6/7) 2:41 AM EDT (6/7)
Length of Visible Light 17h 10m
Length of Day
15h 50m
Waxing Gibbous, 67% of the Moon is Illuminated
Jun 7
Waxing Gibbous
Jun 13
Full
Jun 19
Last Quarter
Jun 27
New
Jul 5
First Quarter

Hourly Weather History & Observations

Time (EDT) Temp. Windchill Dew Point Humidity Pressure Visibility Wind Dir Wind Speed Gust Speed Precip Events Conditions
12:51 AM 62.1 °F - 55.0 °F 78% 29.94 in - WSW 5.8 mph - N/A   Unknown
1:51 AM 48.9 °F - 46.0 °F 90% 29.95 in - Variable 3.5 mph - N/A   Unknown
2:51 AM 44.1 °F 41.5 °F 43.0 °F 96% 29.95 in - NE 4.6 mph - N/A   Unknown
3:51 AM 43.0 °F - 42.1 °F 97% 29.97 in - Calm Calm - N/A   Unknown
4:51 AM 42.1 °F - 41.0 °F 96% 29.94 in - Calm Calm - N/A   Unknown
5:51 AM 45.0 °F 41.2 °F 44.1 °F 97% 29.96 in - North 6.9 mph - N/A   Unknown
6:51 AM 46.9 °F - 45.0 °F 93% 29.96 in - NE 3.5 mph - N/A   Unknown
9:51 AM 43.0 °F 38.2 °F 41.0 °F 93% 29.99 in - North 8.1 mph - N/A   Unknown
10:51 AM 46.0 °F 39.6 °F 45.0 °F 96% 30.02 in - North 15.0 mph - N/A   Unknown
11:51 AM 48.0 °F - 45.0 °F 89% 30.04 in - North 10.4 mph 19.6 mph N/A   Unknown
12:51 PM 48.0 °F - 45.0 °F 89% 30.03 in - North 13.8 mph - 0.08 in   Unknown
1:51 PM 48.9 °F - 45.0 °F 86% 30.02 in - North 5.8 mph - 0.11 in   Unknown
2:51 PM 48.9 °F - 45.0 °F 86% 30.02 in - North 5.8 mph - N/A   Unknown
3:51 PM 50.0 °F - 46.0 °F 86% 30.01 in - North 6.9 mph - N/A   Unknown
4:51 PM 50.0 °F - 46.9 °F 89% 30.01 in - North 3.5 mph - N/A   Unknown
5:51 PM 48.9 °F - 46.9 °F 93% 30.02 in - North 4.6 mph - N/A   Unknown
6:51 PM 46.9 °F - 46.0 °F 97% 30.01 in - North 9.2 mph - N/A   Unknown
7:51 PM 48.9 °F - 46.0 °F 90% 30.01 in - North 6.9 mph - N/A   Unknown
8:51 PM 45.0 °F - 43.0 °F 93% 30.02 in - Calm Calm - N/A   Unknown
9:51 PM 46.9 °F - 45.0 °F 93% 30.02 in - WSW 3.5 mph - N/A   Unknown
10:51 PM 45.0 °F - 44.1 °F 97% 30.03 in - Calm Calm - N/A   Unknown
11:51 PM 45.0 °F - 43.0 °F 93% 30.02 in - Calm Calm - N/A   Unknown